Mona Airport

Jump to: basic info | weather | comments

Related pages: nearby airports | nearby navaids

Basic information (top)

Location: lon 18.075300, lat -67.931000, elev 1 ft / 0 m msl
Status: small_airport

Weather (top)

Current conditions for Punta Cana International Airport 38nm (71km) NW (rec'd 2014/11/21 02:00Z):

MDPC 210200Z 00000KT 9999 FEW018 27/24 Q1016

Airport forecast for Punta Cana International Airport 38nm (71km) NW (rec'd 2014/11/17 12:00Z):

TAF MDPC 171000Z 1712/1812 11012KT 9999 SCT022

Latest comments (top)

No comments yet for Mona Airport

More... (top)

See also NOTAMs and nearby airports and navaids, or visit the Mona Airport page at the main OurAirports website..